User: anonymous   Login
Location: Newsoms
(36.6240°N, 77.1250°W)
Time: 11:49:53
(UTC-05:00)
Language:

BREEZE-M DEB (TANK) - Orbit

View from above orbital plane
View from above orbital plane
View from above satellite
View from above satellite

Ground track
Ground track

The orbit data is extracted from the following two-line orbital elements,

1 29649U 06056B   17350.31782139  .00001312  00000-0  17491-3 0  9999
2 29649  49.4896 100.4406 5391152 275.3060  28.4014  4.99983791196875
Epoch (UTC): 16 December 2017 07:37:39
Eccentricity: 0.5391152
inclination: 49.4896°
perigee height: 280 km
apogee height: 15856 km
right ascension of ascending node: 100.4406°
argument of perigee: 275.3060°
revolutions per day: 4.99983791
mean anomaly at epoch: 28.4014°
orbit number at epoch: 19687

The dashed part of the orbit path shows where the satellite is in the earth's shadow,  

DLR